map of CLD home
Great Circle Mapper logo
CLD - Airport
Location
City:  Carlsbad, California, United States
Name:Mc Clellan-Palomar Airport
ICAO / IATA:KCRQ / CLD
FAA:CRQ

Details
Type:Airport (Part 139 Class I)
Use:Public/Civil
Latitude:3307'42"N (33.128250)
Longitude:11716'48"W (-117.280082)
Datum:WGS 1984
Elevation:330 ft (101 m)
Runways:1
Longest:4897 × 150 ft (1493 × 45.5 m), paved

Time
Time Zone:UTC-8 (DST-7)
Local Time:

Weather
METAR:KCRQ 301253Z 00000KT 10SM CLR 17/14 A2984 RMK AO2 SLP102 T01720139
TAF:KCRQ 301120Z 3012/0112 VRB03KT P6SM SCT012
FM301900 24008KT P6SM SKC
FM010200 VRB04KT P6SM SCT008
FM010500 VRB03KT P6SM OVC007

Related Locations
Nearby:
Farthest:RRG: 11509 mi / 18521 km
Plaine Corail, Rodrigues Island, MU

Find:

   beyond  
but within

Other Information
Maps:
NOTAMs:
Links:
Sources:

  
flag of United States
flag of California
  

Airport Diagram

Airport diagram for CLD

Airport diagram PDF

Sectional Chart

Flight Planning
at skyvector.com

Satellite Image

Google Maps Satellite View

 

Copyright © 2004-2014 Karl L. Swartz. All rights reserved.
The Great Circle Mapper name and logo are trademarks of the Great Circle Mapper.
All other trademarks mentioned herein belong to their respective owners.
Please see credits for attibutions and further copyright information.

  Follow gcmap on Facebook Follow gcmap on Twitter

hCard Microformat

Geo Microformat